Location: Copper Breaks State Park
(34.1132°N, 99.7492°W)
Time: 15:36:18
(UTC-06:00)

Daily predictions for brighter satellites

Satellite Brightness Start Highest point End
(mag) Time Altitude Azimuth Time Altitude Azimuth Time Altitude Azimuth
H-2A ROCKET BODY 4.4 18:12:48 10° SW 18:18:57 59° SSE 18:54:59 10° E
Cosmos 1076 Rocket 4.2 18:20:17 10° SSW 18:24:35 59° W 18:28:55 10° N
CSL-04 Rocket 4.1 18:19:11 10° S 18:24:43 74° WSW 18:30:14 10° NNW
Cosmos 1300 2.8 18:23:01 10° N 18:26:51 85° W 18:30:40 10° S
CZ-4C R/B 3.7 18:25:03 10° SE 18:27:45 14° ESE 18:30:34 10° ENE
Cosmos 1943 Rocket 3.0 18:22:21 10° NNW 18:27:47 56° WSW 18:33:09 10° S
Cosmos 1777 Rocket 4.3 18:23:11 10° N 18:28:13 45° ENE 18:33:15 10° SE
Cosmos 2369 Rocket 4.2 18:23:08 10° NW 18:28:14 35° WSW 18:33:20 10° SSW
Tiangong 1 1.5 18:26:29 10° NW 18:28:42 28° NNE 18:30:54 10° E
IRS-1A Rocket 4.2 18:27:32 10° SSE 18:33:00 67° ENE 18:38:35 10° N
Cosmos 1703 3.7 18:29:29 10° SSE 18:33:11 40° E 18:36:55 10° NNE
OAO 3 Rocket 3.2 18:28:47 10° W 18:33:27 83° SSW 18:38:11 10° ESE
USA 267 3.9 18:27:13 10° SSE 18:33:41 61° SW 18:40:12 10° NW
SPOT 3 Rocket 4.2 18:31:01 10° SE 18:35:33 33° ENE 18:40:07 10° N
Lacrosse 5 3.0 18:32:45 10° S 18:36:54 26° ESE 18:40:56 11° ENE
COSMO-SKYMED 1 2.5 18:35:48 10° NNE 18:40:09 78° ESE 18:44:29 10° S
CZ-2C R/B 4.2 18:38:58 10° N 18:43:36 65° WNW 18:48:08 10° SSW
FENGYUN 3A 3.8 18:39:20 10° SSE 18:44:30 52° ENE 18:49:42 10° N
SeaSat 1 3.6 18:41:15 10° S 18:45:59 48° WSW 18:50:46 10° NW
MOS 1 4.3 18:40:51 10° SSE 18:46:20 57° ENE 18:51:51 10° N
SL-8 Rocket 4.5 18:41:06 10° NNW 18:47:15 66° W 18:53:25 10° S
ASTRO E2 3.1 18:43:35 10° W 18:47:30 58° S 18:51:07 12° ESE
Cosmos 2208 Rocket 4.5 18:46:11 10° S 18:51:03 40° E 18:56:01 10° NNE
Cosmos 1743 Rocket 3.6 18:47:50 10° S 18:52:06 56° E 18:56:21 10° NNE
METEOR-M 4.3 18:47:40 10° S 18:53:00 77° WSW 18:58:22 10° NNW
Meteor 2-2 Rocket 4.3 18:48:48 10° N 18:54:31 87° W 19:00:08 10° S
Cosmos 1328 Rocket 3.5 18:53:14 10° N 18:57:34 62° E 19:01:49 10° SSE
Cosmos 2218 Rocket 4.5 18:52:25 10° NNW 18:58:29 64° W 19:04:32 10° S
Cosmos 371 Rocket 3.2 18:57:25 10° SSW 19:02:12 80° ESE 19:07:02 10° NNE
Cosmos 2228 Rocket 3.3 18:58:00 10° N 19:02:29 52° E 19:06:56 10° SSE
ISS -2.7 19:00:01 10° SSW 19:02:50 28° SE 19:03:52 23° E
NOSS 3-4 (A) 3.9 18:58:24 10° NNW 19:05:38 87° ENE 19:13:20 10° SSE
NOSS 3-4 (C) 3.9 18:58:30 10° NNW 19:05:44 86° ENE 19:13:27 10° SSE
Cosmos 2082 Rocket 3.5 19:02:33 10° SE 19:06:16 18° E 19:06:43 18° E
Cosmos 2058 3.1 19:09:56 10° S 19:14:05 75° W 19:18:18 10° N
SEDSat Delta rocket 4.1 19:08:00 10° W 19:14:46 71° S 19:19:05 22° E
Cosmos 2098 Rocket 4.1 19:10:23 10° N 19:16:15 87° W 19:23:20 10° S
H-2A R/B 2.8 19:13:46 10° SSE 19:17:27 50° ENE 19:21:12 10° N
Cosmos 1241 Rocket 4.3 19:14:31 10° NNW 19:20:44 74° ENE 19:27:00 10° SSE
Cosmos 1570 Rocket 4.0 19:17:31 10° SSW 19:22:50 85° WNW 19:28:09 10° NNE
Cosmos 1455 2.1 19:20:06 10° N 19:23:57 84° W 19:27:44 10° S
CZ-4 R/B 4.4 19:22:42 10° SW 19:25:45 19° W 19:28:50 10° NW
Cosmos 1151 Rocket 2.9 19:21:38 10° N 19:26:03 83° E 19:30:24 10° S
COSMOS 2406 4.2 19:21:51 10° SW 19:27:19 46° WNW 19:32:48 10° N
Cosmos 1346 Rocket 4.1 19:23:54 10° NNW 19:27:34 40° W 19:31:11 10° SSW
Cosmos 1833 Rocket 3.4 19:23:50 10° SSE 19:28:40 31° ESE 19:29:06 31° E
Cosmos 1805 Rocket 4.3 19:28:00 10° SSE 19:31:08 33° ESE 19:31:08 33° ESE
Hubble Space Telescope 2.3 19:30:13 10° SW 19:33:33 24° SSE 19:34:20 22° SSE
SL-27 R/B 2.2 19:30:40 10° SSW 19:34:05 82° ESE 19:34:39 59° NNE
Cosmos 1821 Rocket 3.9 19:30:16 10° N 19:36:28 74° E 19:42:43 10° SSE
Cosmos 1535 Rocket 4.3 19:32:09 10° N 19:38:14 64° E 19:44:15 10° SSE
FengYun 1-2 T 4.2 19:38:01 10° SSE 19:43:40 87° ENE 19:49:18 10° NNW
ERS-2 3.4 19:46:51 10° S 19:50:19 41° W 19:53:50 10° NNW
Cosmos 304 Rocket 3.6 19:46:53 10° SSW 19:51:40 83° ESE 19:52:45 54° NNE
ALOS 4.5 19:48:17 10° SSW 19:52:10 26° W 19:56:05 10° NW
Thor Agena Rocket 3.5 19:52:55 19° NNE 19:56:46 85° WNW 20:01:56 10° SSW
Tiangong 1 4.2 20:00:50 10° W 20:01:08 12° W 20:01:08 12° W
Cosmos 1340 4.2 20:04:23 10° NNW 20:11:13 12° SSW 20:11:36 10° SSW
Cosmos 1934 Rocket 4.0 20:04:10 10° N 20:10:33 80° W 20:16:54 10° S
Atlas Centaur 2 4.2 20:09:46 10° SSW 20:13:58 18° SSE 20:13:58 18° SSE
CZ-4C R/B 2.5 20:10:28 10° SW 20:15:25 56° NW 20:16:36 46° N
OAO 3 Rocket 4.4 20:12:32 10° W 20:16:43 32° SSW 20:16:56 32° SSW
Cosmos 1605 Rocket 4.1 20:13:02 10° N 20:24:55 12° S 20:25:13 10° S
Lacrosse 5 2.8 20:14:51 10° WSW 20:19:39 41° NW 20:20:11 40° NNW
Cosmos 1727 Rocket 4.1 20:22:55 10° S 20:27:52 60° S 20:27:52 60° S
Cosmos 2082 Rocket 3.2 20:44:22 10° SW 20:48:39 43° WSW 20:48:39 43° WSW
